Total_Precipitation_Accumulation
2.16 2.02 2.92 4.38 4.64 3.85 3.25 2.72 2.04 1.62 1.11 0.92 0.85 1.01 1.34 1.79 2.20 2.66 2.97 2.80 1.87 1.54 1.70 2.48 3.38 3.33 3.05 3.01 2.95 2.84 2.84 2.83 2.67 2.52 2.31 2.23 2.12 2.18 2.48 2.33 2.29 2.13 1.96 2.09 2.30 2.46 2.54 2.53 2.56
1.74 2.40 3.50 4.89 4.38 3.44 3.09 2.62 1.97 1.33 0.85 0.66 0.58 0.70 0.83 0.84 0.94 1.64 2.79 2.78 1.60 1.29 1.50 2.08 2.91 2.84 2.75 2.74 2.55 2.46 2.43 2.36 2.39 2.38 2.19 2.12 2.12 2.28 2.52 2.43 2.25 2.10 2.00 2.08 2.26 2.45 2.40 2.43 2.58
1.91 3.07 4.11 4.33 3.46 3.15 3.04 2.36 1.58 0.90 0.58 0.52 0.51 0.54 0.67 0.98 1.15 1.75 2.46 2.01 1.28 1.10 1.41 2.14 2.75 2.63 2.61 2.55 2.28 2.30 2.18 2.11 2.16 2.24 2.16 2.19 2.12 2.19 2.38 2.39 2.34 2.31 2.34 2.30 2.41 2.47 2.38 2.42 2.53
2.13 3.29 3.63 3.36 2.94 2.46 2.09 1.69 1.23 1.02 0.66 0.40 0.38 0.53 0.62 1.04 1.38 1.63 1.68 1.39 1.14 1.16 1.30 1.82 2.40 2.36 2.31 2.28 2.32 2.27 2.11 2.09 2.06 2.08 2.12 2.15 2.14 2.11 2.22 2.36 2.30 2.27 2.50 2.61 2.59 2.59 2.58 2.53 2.52
2.64 3.38 3.24 2.78 2.43 1.99 1.49 1.15 0.98 0.99 0.80 0.46 0.35 0.59 0.89 1.31 1.47 1.31 1.18 0.99 0.97 1.05 1.09 1.44 2.08 2.09 2.04 2.08 2.18 2.25 2.17 2.15 2.07 2.07 2.22 2.24 2.18 2.15 2.22 2.37 2.35 2.27 2.38 2.61 2.55 2.48 2.44 2.35 2.36
2.92 2.96 2.98 2.60 2.37 1.91 1.48 1.05 0.83 0.79 0.64 0.45 0.36 0.59 1.02 1.37 1.54 1.33 1.15 1.14 1.11 1.14 1.06 1.22 1.88 2.03 1.91 1.99 2.05 2.13 2.21 2.19 2.09 2.09 2.13 2.18 2.24 2.16 2.20 2.24 2.29 2.21 2.24 2.40 2.40 2.28 2.27 2.11 2.09
2.82 2.73 2.52 2.10 2.19 2.32 1.71 1.05 0.89 0.87 0.71 0.49 0.36 0.64 1.03 1.30 1.27 1.19 1.25 1.32 1.33 1.39 1.34 1.40 1.62 1.77 1.91 2.02 2.04 2.17 2.29 2.23 2.06 1.96 1.96 1.99 2.09 2.02 1.95 1.93 2.05 2.06 2.14 2.21 2.19 2.21 2.24 2.11 2.07
2.21 2.25 2.06 2.01 2.22 2.42 1.59 1.05 0.86 0.80 0.71 0.36 0.31 0.61 0.96 0.95 0.93 1.08 1.22 1.26 1.26 1.33 1.30 1.38 1.52 1.57 1.61 1.76 2.08 2.35 2.70 2.56 2.11 1.80 1.66 1.80 1.82 1.77 1.83 1.75 1.85 1.98 2.14 2.36 2.34 2.36 2.26 2.24 2.13
1.99 2.36 2.47 2.50 2.47 2.15 1.43 1.23 0.95 0.63 0.56 0.41 0.38 0.49 0.59 0.58 0.75 0.89 1.06 1.09 1.07 1.04 1.09 1.20 1.31 1.35 1.42 1.43 1.68 2.19 2.63 2.63 2.18 1.80 1.72 1.65 1.39 1.37 1.55 1.70 1.96 2.10 2.26 2.61 2.67 2.55 2.37 2.20 2.06
1.94 2.32 2.24 1.93 1.60 1.33 1.16 1.06 0.90 0.78 0.79 0.62 0.52 0.51 0.54 0.58 0.79 0.88 0.93 1.02 0.95 0.85 0.81 0.84 0.88 0.99 1.08 1.10 1.42 1.74 1.77 1.97 1.73 1.67 1.59 1.54 1.52 1.51 1.29 1.44 1.89 2.12 2.18 2.45 2.62 2.54 2.15 1.70 1.52
1.68 1.78 1.56 1.39 1.06 0.86 0.85 0.76 0.67 0.70 0.80 0.68 0.64 0.53 0.57 0.62 0.73 0.78 0.75 0.74 0.77 0.77 0.75 0.69 0.70 0.78 0.93 1.08 1.25 1.46 1.60 1.76 1.73 1.67 1.68 1.77 1.75 1.45 1.29 1.38 1.51 1.69 1.78 1.80 1.94 1.96 1.68 1.41 1.34
1.62 1.34 1.19 1.12 0.78 0.76 0.78 0.64 0.57 0.57 0.54 0.40 0.49 0.45 0.49 0.57 0.61 0.60 0.61 0.63 0.62 0.64 0.74 0.70 0.57 0.60 0.69 0.79 0.96 1.13 1.34 1.53 1.58 1.42 1.40 1.57 1.64 1.48 1.35 1.51 1.55 1.64 1.75 1.79 1.79 1.76 1.57 1.25 1.19
1.54 1.43 1.16 1.02 0.78 0.76 0.70 0.64 0.54 0.46 0.41 0.34 0.40 0.50 0.56 0.62 0.62 0.58 0.54 0.58 0.58 0.64 0.72 0.76 0.67 0.61 0.66 0.72 0.79 0.82 1.11 1.29 1.44 1.52 1.33 1.45 1.53 1.49 1.39 1.35 1.50 1.50 1.62 1.67 1.76 1.80 1.64 1.43 1.28
1.41 1.30 1.06 0.96 0.85 0.75 0.69 0.61 0.56 0.47 0.41 0.38 0.44 0.58 0.61 0.66 0.67 0.64 0.58 0.53 0.50 0.60 0.70 0.72 0.74 0.71 0.72 0.74 0.74 0.73 0.80 0.89 0.99 0.96 0.95 1.13 1.28 1.33 1.35 1.25 1.32 1.41 1.61 1.86 1.96 1.79 1.68 1.55 1.46
1.14 1.25 1.31 1.08 0.89 0.70 0.71 0.84 0.62 0.53 0.51 0.49 0.51 0.56 0.60 0.58 0.59 0.60 0.56 0.53 0.53 0.58 0.64 0.70 0.76 0.82 0.82 0.83 0.88 0.85 0.80 0.82 0.82 0.79 0.80 0.89 1.01 1.12 1.23 1.29 1.28 1.33 1.59 1.89 2.10 1.96 1.81 1.62 1.59
1.24 1.42 1.72 1.37 1.12 0.87 0.97 1.15 0.60 0.53 0.58 0.54 0.50 0.48 0.50 0.47 0.50 0.53 0.54 0.54 0.56 0.57 0.55 0.58 0.62 0.71 0.75 0.81 0.85 0.94 0.93 0.93 0.91 0.93 0.88 0.83 0.97 1.11 1.23 1.34 1.29 1.32 1.56 1.85 2.10 2.15 2.12 2.00 1.90
1.39 1.38 1.36 1.31 1.12 0.94 0.93 0.89 0.53 0.50 0.58 0.59 0.52 0.48 0.51 0.37 0.38 0.42 0.43 0.47 0.51 0.52 0.46 0.45 0.49 0.53 0.56 0.60 0.68 0.81 0.89 0.96 1.04 1.04 1.04 1.04 1.11 1.15 1.29 1.51 1.54 1.55 1.73 1.83 1.86 2.02 2.07 2.12 2.08
1.06 0.96 0.99 1.10 0.92 0.90 0.86 0.65 0.48 0.49 0.53 0.56 0.58 0.53 0.48 0.33 0.27 0.27 0.32 0.38 0.41 0.44 0.44 0.44 0.46 0.47 0.46 0.47 0.57 0.72 0.80 0.85 1.06 1.12 1.15 1.42 1.56 1.38 1.36 1.54 1.60 1.66 1.91 1.96 2.00 2.23 2.22 2.14 2.19
0.75 0.71 0.80 0.80 0.67 0.82 0.78 0.61 0.50 0.45 0.41 0.43 0.49 0.50 0.45 0.34 0.23 0.15 0.15 0.22 0.28 0.29 0.29 0.35 0.38 0.46 0.46 0.41 0.45 0.60 0.73 0.85 1.00 1.19 1.20 1.42 1.56 1.49 1.53 1.60 1.66 1.70 1.83 1.89 2.00 2.36 2.41 2.24 2.10
0.71 0.76 0.80 0.73 0.63 0.72 0.79 0.65 0.52 0.42 0.36 0.37 0.40 0.43 0.40 0.31 0.21 0.15 0.12 0.15 0.21 0.26 0.21 0.23 0.27 0.38 0.48 0.51 0.55 0.69 0.88 0.99 1.10 1.28 1.31 1.40 1.43 1.42 1.39 1.61 1.77 1.75 1.91 1.97 2.12 2.42 2.67 2.41 2.21
0.65 0.73 0.72 0.73 0.75 0.70 0.77 0.84 0.65 0.48 0.41 0.39 0.38 0.38 0.35 0.25 0.21 0.18 0.15 0.13 0.15 0.19 0.16 0.20 0.30 0.44 0.60 0.78 1.01 1.28 1.58 1.74 1.64 1.52 1.60 1.69 1.74 1.67 1.63 1.74 1.91 1.88 1.96 2.07 2.11 2.20 2.71 2.88 2.61
0.77 0.52 0.52 0.63 0.85 0.87 0.72 0.94 0.66 0.48 0.47 0.46 0.41 0.35 0.31 0.27 0.24 0.20 0.18 0.17 0.18 0.24 0.30 0.39 0.53 0.69 0.86 1.06 1.28 1.56 1.83 2.04 2.05 2.09 2.14 2.11 2.03 1.91 1.79 1.83 1.93 1.99 2.07 2.04 1.87 2.03 2.53 3.06 3.11
0.61 0.51 0.51 0.59 0.78 0.75 0.65 0.68 0.58 0.48 0.56 0.56 0.51 0.44 0.40 0.38 0.35 0.34 0.33 0.30 0.31 0.41 0.55 0.66 0.91 1.08 1.22 1.27 1.36 1.58 1.70 1.78 1.89 2.05 2.12 2.13 2.06 1.95 1.79 1.75 1.90 2.02 2.09 2.07 2.11 2.26 2.56 2.88 3.18
0.50 0.58 0.64 0.73 0.82 0.77 0.51 0.51 0.59 0.47 0.53 0.64 0.61 0.52 0.46 0.44 0.41 0.43 0.48 0.48 0.52 0.73 0.96 1.11 1.24 1.35 1.34 1.30 1.30 1.41 1.56 1.67 1.77 1.93 2.01 1.95 1.84 1.82 1.75 1.73 1.78 1.80 1.88 1.98 2.14 2.37 2.50 2.69 2.94
0.49 0.74 0.94 0.97 0.90 0.64 0.34 0.40 0.48 0.37 0.36 0.46 0.51 0.50 0.45 0.38 0.38 0.42 0.49 0.62 0.82 1.05 1.25 1.39 1.40 1.32 1.19 1.15 1.21 1.26 1.41 1.57 1.63 1.67 1.70 1.70 1.66 1.61 1.60 1.62 1.64 1.59 1.61 1.74 1.90 2.14 2.18 2.29 2.51
0.42 0.55 0.82 0.88 0.76 0.54 0.37 0.51 0.53 0.38 0.29 0.26 0.28 0.33 0.41 0.44 0.51 0.52 0.56 0.72 1.01 1.26 1.49 1.76 1.73 1.50 1.28 1.21 1.26 1.30 1.40 1.47 1.45 1.38 1.43 1.46 1.45 1.40 1.34 1.37 1.44 1.45 1.46 1.51 1.67 1.82 1.82 1.88 2.08
0.39 0.40 0.44 0.60 0.52 0.48 0.41 0.47 0.42 0.28 0.23 0.22 0.25 0.30 0.42 0.51 0.60 0.70 0.83 0.90 1.11 1.33 1.64 1.90 1.95 1.75 1.58 1.50 1.41 1.42 1.34 1.27 1.20 1.12 1.12 1.17 1.22 1.16 1.12 1.18 1.30 1.38 1.38 1.36 1.51 1.65 1.62 1.69 1.83
0.31 0.34 0.41 0.62 0.68 0.64 0.46 0.48 0.42 0.29 0.22 0.23 0.33 0.39 0.47 0.56 0.59 0.75 1.03 1.27 1.51 1.45 1.57 1.77 1.70 1.62 1.60 1.61 1.58 1.47 1.31 1.19 1.15 1.08 1.09 1.07 1.13 1.08 1.09 1.11 1.12 1.14 1.16 1.22 1.40 1.59 1.66 1.65 1.72
0.31 0.34 0.38 0.51 0.51 0.66 0.73 0.61 0.37 0.32 0.32 0.37 0.46 0.49 0.53 0.60 0.65 0.81 1.01 1.19 1.39 1.50 1.51 1.51 1.49 1.50 1.46 1.38 1.34 1.20 1.00 0.88 0.87 0.89 0.89 0.86 0.89 0.85 0.87 0.86 0.92 1.04 1.05 1.06 1.23 1.34 1.37 1.50 1.59
0.34 0.37 0.41 0.65 0.64 0.60 0.83 0.83 0.47 0.45 0.49 0.57 0.64 0.69 0.72 0.73 0.78 0.89 0.98 1.16 1.26 1.27 1.33 1.39 1.30 1.28 1.23 1.11 1.00 0.87 0.74 0.69 0.70 0.71 0.68 0.63 0.65 0.62 0.67 0.74 0.74 0.93 1.09 1.12 1.15 1.16 1.15 1.30 1.40